Location: Cussy
(47.0410°N, 4.6412°E)
Time: 15:15:41
(UTC+00:00)

CZ-2D R/B - Pass Details

Date: 30 November 2020
Orbit: 520 x 538 km, 97.4° (Epoch: 27 January)

Event Time Altitude Azimuth Distance (km) Brightness Sun altitude
Rises 17:59:53 0° 169° (S) 2,645 6.8 -20.7°
Reaches altitude 10° 18:01:58 10° 171° (S) 1,764 5.9 -21.0°
Maximum altitude 18:05:46 78° 256° (WSW) 546 3.3 -21.7°
Drops below altitude 10° 18:09:39 10° 345° (NNW) 1,791 6.0 -22.3°
Sets 18:11:47 0° 347° (NNW) 2,690 6.9 -22.7°
